Weather History for Great Bend, KS

Change the Weather History Date:

Tuesday, October 8, 2013

  Actual Average Record
Temperature  
Mean Temperature 68 °F -  
Max Temperature 82 °F 74 °F 93 °F (1979)
Min Temperature 53 °F 48 °F 23 °F (2000)
Cooling Degree Days 2    
Growing Degree Days 18 (Base 50)    
Moisture  
Dew Point 38 °F    
Average Humidity 38    
Maximum Humidity 51    
Minimum Humidity 21    
Precipitation  
Precipitation 0.00 in - - ()
Sea Level Pressure  
Sea Level Pressure 29.94 in    
Wind  
Wind Speed 19 mph (South)    
Max Wind Speed 29 mph    
Max Gust Speed 38 mph    
Visibility 10 miles    
Events      
Averages and records for this station are not official NWS values.
T = Trace of Precipitation, MM = Missing Value Source: NWS Daily Summary

Daily Weather History Graph

Daily Weather History Graph

Search for Another Location

Airport:

Trip Planner

Search our weather history database for the weather conditions in past years. The results will help you decide how hot, cold, wet, or windy it might be!

Date:

Astronomy

Oct. 08, 2013 Rise Set
Actual Time 7:37 AM CDT 7:07 PM CDT
Civil Twilight 7:11 AM CDT 7:33 PM CDT
Nautical Twilight 6:40 AM CDT 8:04 PM CDT
Astronomical Twilight 6:10 AM CDT 8:34 PM CDT
Moon 11:30 AM CDT (10/8) 9:48 PM CDT (10/8)
Length of Visible Light 12h 22m
Length of Day
11h 29m
Waxing Crescent, 16% of the Moon is Illuminated
Oct 8
Waxing Crescent
Oct 11
First Quarter
Oct 18
Full
Oct 26
Last Quarter
Nov 3
New

Hourly Weather History & Observations

Time (CDT) Temp. Dew Point Humidity Pressure Visibility Wind Dir Wind Speed Gust Speed Precip Events Conditions
12:15 AM 57.2 °F 33.8 °F 41% 30.03 in 10.0 mi South 15.0 mph - N/A   Clear
12:35 AM 57.2 °F 33.8 °F 41% 30.03 in 10.0 mi South 15.0 mph - N/A   Clear
12:55 AM 55.4 °F 33.8 °F 44% 30.02 in 10.0 mi South 12.7 mph - N/A   Clear
1:15 AM 55.4 °F 33.8 °F 44% 30.02 in 10.0 mi South 13.8 mph - N/A   Clear
1:35 AM 55.4 °F 33.8 °F 44% 30.02 in 10.0 mi South 16.1 mph - N/A   Clear
1:55 AM 57.2 °F 33.8 °F 41% 30.01 in 10.0 mi South 16.1 mph - N/A   Clear
2:15 AM 57.2 °F 33.8 °F 41% 30.01 in 10.0 mi South 16.1 mph - N/A   Clear
2:35 AM 55.4 °F 33.8 °F 44% 30.01 in 10.0 mi South 15.0 mph - N/A   Clear
2:55 AM 55.4 °F 33.8 °F 44% 30.01 in 10.0 mi South 15.0 mph - N/A   Clear
3:15 AM 55.4 °F 33.8 °F 44% 30.00 in 10.0 mi South 16.1 mph - N/A   Clear
3:35 AM 55.4 °F 33.8 °F 44% 30.00 in 10.0 mi South 13.8 mph - N/A   Clear
3:55 AM 55.4 °F 35.6 °F 47% 30.00 in 10.0 mi South 15.0 mph - N/A   Clear
4:15 AM 55.4 °F 35.6 °F 47% 30.00 in 10.0 mi South 13.8 mph - N/A   Clear
4:35 AM 55.4 °F 35.6 °F 47% 30.00 in 10.0 mi South 15.0 mph - N/A   Clear
4:55 AM 55.4 °F 35.6 °F 47% 30.00 in 10.0 mi South 13.8 mph 19.6 mph N/A   Clear
5:15 AM 55.4 °F 35.6 °F 47% 29.99 in 10.0 mi South 15.0 mph - N/A   Clear
5:35 AM 55.4 °F 35.6 °F 47% 29.99 in 10.0 mi South 13.8 mph - N/A   Clear
5:55 AM 53.6 °F 35.6 °F 51% 29.99 in 10.0 mi South 15.0 mph - N/A   Clear
6:15 AM 53.6 °F 35.6 °F 51% 29.99 in 10.0 mi South 16.1 mph - N/A   Clear
6:35 AM 53.6 °F 35.6 °F 51% 29.99 in 10.0 mi South 15.0 mph - N/A   Clear
6:55 AM 53.6 °F 35.6 °F 51% 29.99 in 10.0 mi South 16.1 mph - N/A   Clear
7:15 AM 53.6 °F 35.6 °F 51% 29.99 in 10.0 mi South 15.0 mph 20.7 mph N/A   Clear
7:35 AM 53.6 °F 35.6 °F 51% 29.99 in 10.0 mi South 16.1 mph - N/A   Clear
7:55 AM 53.6 °F 35.6 °F 51% 29.99 in 10.0 mi South 16.1 mph 23.0 mph N/A   Clear
8:15 AM 55.4 °F 35.6 °F 47% 29.99 in 10.0 mi South 17.3 mph 23.0 mph N/A   Clear
8:35 AM 57.2 °F 35.6 °F 44% 29.99 in 10.0 mi South 19.6 mph 24.2 mph N/A   Clear
8:55 AM 59.0 °F 35.6 °F 42% 29.99 in 10.0 mi South 21.9 mph 27.6 mph N/A   Clear
9:15 AM 60.8 °F 37.4 °F 42% 29.99 in 10.0 mi South 23.0 mph 28.8 mph N/A   Clear
9:35 AM 62.6 °F 37.4 °F 39% 29.99 in 10.0 mi South 25.3 mph 32.2 mph N/A   Clear
9:55 AM 64.4 °F 37.4 °F 37% 29.99 in 10.0 mi South 24.2 mph 31.1 mph N/A   Clear
10:15 AM 66.2 °F 37.4 °F 35% 29.98 in 10.0 mi South 25.3 mph 32.2 mph N/A   Clear
10:35 AM 69.8 °F 37.4 °F 31% 29.98 in 10.0 mi South 24.2 mph 36.8 mph N/A   Clear
10:55 AM 71.6 °F 37.4 °F 29% 29.97 in 10.0 mi South 28.8 mph 35.7 mph N/A   Clear
11:15 AM 71.6 °F 37.4 °F 29% 29.96 in 10.0 mi South 28.8 mph 36.8 mph N/A   Clear
11:35 AM 73.4 °F 37.4 °F 27% 29.96 in 10.0 mi South 26.5 mph 38.0 mph N/A   Clear
11:55 AM 75.2 °F 39.2 °F 27% 29.95 in 9.0 mi South 28.8 mph 33.4 mph N/A   Clear
12:15 PM 75.2 °F 39.2 °F 27% 29.95 in 10.0 mi South 27.6 mph 34.5 mph N/A   Clear
12:35 PM 77.0 °F 39.2 °F 26% 29.94 in 10.0 mi South 27.6 mph 36.8 mph N/A   Clear
12:55 PM 77.0 °F 39.2 °F 26% 29.93 in 10.0 mi South 27.6 mph 36.8 mph N/A   Clear
1:15 PM 78.8 °F 39.2 °F 24% 29.93 in 10.0 mi South 27.6 mph 35.7 mph N/A   Clear
1:35 PM 78.8 °F 39.2 °F 24% 29.91 in 10.0 mi South 28.8 mph 35.7 mph N/A   Clear
1:55 PM 80.6 °F 39.2 °F 23% 29.91 in 10.0 mi South 26.5 mph 35.7 mph N/A   Clear
2:15 PM 80.6 °F 39.2 °F 23% 29.90 in 10.0 mi South 26.5 mph 38.0 mph N/A   Clear
2:35 PM 80.6 °F 39.2 °F 23% 29.89 in 10.0 mi South 25.3 mph 35.7 mph N/A   Clear
2:55 PM 80.6 °F 39.2 °F 23% 29.89 in 10.0 mi South 24.2 mph 31.1 mph N/A   Clear
3:15 PM 80.6 °F 39.2 °F 23% 29.88 in 10.0 mi South 25.3 mph 34.5 mph N/A   Clear
3:35 PM 82.4 °F 39.2 °F 21% 29.88 in 10.0 mi South 28.8 mph 34.5 mph N/A   Clear
3:55 PM 80.6 °F 41.0 °F 24% 29.87 in 10.0 mi South 27.6 mph 33.4 mph N/A   Clear
4:15 PM 78.8 °F 41.0 °F 26% 29.86 in 10.0 mi SSE 24.2 mph 34.5 mph N/A   Clear
4:35 PM 78.8 °F 41.0 °F 26% 29.86 in 10.0 mi SSE 27.6 mph 34.5 mph N/A   Clear
4:55 PM 80.6 °F 41.0 °F 24% 29.86 in 10.0 mi South 27.6 mph 33.4 mph N/A   Clear
5:15 PM 78.8 °F 41.0 °F 26% 29.86 in 10.0 mi SSE 23.0 mph 33.4 mph N/A   Clear
5:35 PM 77.0 °F 42.8 °F 29% 29.85 in 10.0 mi SSE 20.7 mph 32.2 mph N/A   Clear
5:55 PM 75.2 °F 42.8 °F 31% 29.85 in 10.0 mi SSE 21.9 mph 31.1 mph N/A   Clear
6:15 PM 73.4 °F 42.8 °F 33% 29.85 in 10.0 mi SSE 23.0 mph 31.1 mph N/A   Clear
6:35 PM 73.4 °F 42.8 °F 33% 29.86 in 10.0 mi SSE 20.7 mph 28.8 mph N/A   Clear
6:55 PM 71.6 °F 42.8 °F 35% 29.86 in 10.0 mi SSE 20.7 mph 26.5 mph N/A   Clear
7:15 PM 71.6 °F 42.8 °F 35% 29.86 in 10.0 mi SSE 19.6 mph 28.8 mph N/A   Clear
7:35 PM 69.8 °F 42.8 °F 38% 29.86 in 10.0 mi SSE 23.0 mph 31.1 mph N/A   Clear
7:55 PM 69.8 °F 42.8 °F 38% 29.87 in 10.0 mi SSE 23.0 mph 28.8 mph N/A   Clear
8:15 PM 68.0 °F 42.8 °F 40% 29.87 in 10.0 mi SSE 21.9 mph 29.9 mph N/A   Clear
8:35 PM 66.2 °F 42.8 °F 43% 29.87 in 10.0 mi SSE 19.6 mph 29.9 mph N/A   Clear
8:55 PM 66.2 °F 42.8 °F 43% 29.87 in 10.0 mi SSE 24.2 mph 29.9 mph N/A   Clear
9:15 PM 66.2 °F 42.8 °F 43% 29.88 in 10.0 mi SSE 21.9 mph 26.5 mph N/A   Clear
9:35 PM 66.2 °F 42.8 °F 43% 29.88 in 10.0 mi SSE 23.0 mph 31.1 mph N/A   Clear
9:55 PM 64.4 °F 42.8 °F 45% 29.88 in 10.0 mi SSE 20.7 mph 28.8 mph N/A   Clear
10:15 PM 64.4 °F 42.8 °F 45% 29.88 in 10.0 mi SSE 20.7 mph 31.1 mph N/A   Clear
10:35 PM 64.4 °F 41.0 °F 42% 29.89 in 10.0 mi SSE 23.0 mph 28.8 mph N/A   Clear
10:55 PM 64.4 °F 41.0 °F 42% 29.88 in 10.0 mi SSE 23.0 mph 31.1 mph N/A   Clear
11:15 PM 64.4 °F 41.0 °F 42% 29.89 in 10.0 mi SSE 21.9 mph 27.6 mph N/A   Clear
11:35 PM 62.6 °F 42.8 °F 48% 29.89 in 10.0 mi SSE 21.9 mph 28.8 mph N/A   Clear
11:55 PM 62.6 °F 42.8 °F 48% 29.89 in 10.0 mi SSE 20.7 mph 25.3 mph N/A   Clear